[[{"header":{"parameterUnit":"m.s-1","parameterCategory":1,"la1":30.2991,"la2":30.254,"lo1":-89.0895,"lo2":-89.0444,"dy":0.0017,"dx":0.0017,"nx":28,"ny":28,"refTime":"2025-08-20T21:00:00:Z","depth":0,"parameterNumber":2,"parameterNumberName":"U-component_of_WINDS"},"data":[0,0,0,0,0,0,0,0,0,0,0,0,0,0,0,0,0,0,0,0,0,0,0,0,0,0,0,0,0,0,0,0,0,0,0,0,0,0,0,0,0,0,0,0,0,0,0,0,0,0,0,0,0,0,0,0,0,0,0.4276,0.4278,0,0.4396,0.4398,0.4399,0.4459,0.4459,0.4459,0.4459,0.4585,0.4588,0.4592,0,0,0,0,0,0,0,0,0,0,0,0,0,0.4102,0.4105,0.4276,0.4278,0.4279,0.4396,0.4398,0.4399,0.4459,0.4459,0.4459,0.4459,0.4584,0.4588,0.4592,0,0,0,0,0,0,0,0,0,0,0,0,0,0.4196,0.4106,0.4276,0.4323,0.4328,0.4396,0.4398,0.44,0.4459,0.4459,0.4459,0.4459,0.4583,0.4588,0.4593,0.4624,0,0,0.4608,0.461,0,0,0,0,0,0,0,0,0.419,0.4202,0.4314,0.432,0.4326,0.4412,0.4383,0.4475,0.4459,0.4409,0.4459,0.4459,0.4528,0.4538,0.456,0.463,0.4635,0.4609,0.4612,0.4614,0.4615,0,0,0,0,0,0,0,0.4184,0.4197,0.4324,0.4316,0.4323,0.4339,0.4352,0.4401,0.4467,0.4413,0.4418,0.4431,0.4531,0.4555,0.4564,0.4637,0.4608,0.4613,0.4616,0.4618,0.4739,0.4739,0,0,0,0,0,0,0.4169,0.4191,0.432,0.4327,0.4257,0.4342,0.4357,0.4385,0.4467,0.4479,0.4431,0.4434,0.4546,0.4558,0.4568,0.4611,0.4614,0.4619,0.4621,0.4739,0.4739,0.4739,0,0,0,0,0,0,0.4165,0.418,0.4315,0.4261,0.4279,0.4345,0.4376,0.4387,0.4411,0.448,0.4493,0.4443,0.4547,0.4561,0.4609,0.4616,0.4621,0.4625,0.4739,0.4739,0.4739,0.4695,0,0,0,0,0,0,0.416,0.4178,0.419,0.426,0.4282,0.4353,0.4376,0.4389,0.4419,0.4423,0.4495,0.4507,0.4548,0.4602,0.4614,0.4623,0.4629,0.4738,0.4739,0.4739,0.4696,0.4693,0.4691,0,0,0,0,0,0.4154,0.4173,0.419,0.4205,0.4297,0.4353,0.4366,0.4412,0.4419,0.4432,0.4477,0.4504,0.4613,0.4606,0.4621,0.4631,0.4738,0.4739,0.4739,0.4697,0.4694,0.4691,0,0,0,0,0,0,0.4103,0.4184,0.4203,0.4246,0.4292,0.4363,0.4381,0.4407,0.4453,0.4455,0.4512,0.4528,0.4571,0.4606,0.4597,0.4666,0.4678,0.4682,0.4641,0.4639,0.4636,0.4627,0.4634,0,0,0,0,0,0.4097,0.4134,0.4203,0.4234,0.4256,0.4314,0.434,0.4372,0.4423,0.4443,0.4491,0.454,0.4585,0.4614,0.4659,0.4701,0.4718,0.4715,0.4713,0.4711,0.4713,0.4739,0.4738,0.4741,0.4741,0.4741,0,0,0.4085,0.4133,0.4154,0.4225,0.4265,0.4304,0.4331,0.437,0.44,0.4449,0.4498,0.4534,0.4593,0.4638,0.4661,0.4669,0.4716,0.4711,0.4709,0.4713,0.4739,0.4739,0.4738,0.4741,0.4741,0.4741,0,0,0.4082,0.4122,0.4153,0.4192,0.4251,0.4289,0.4296,0.4363,0.4389,0.4438,0.4476,0.4513,0.4589,0.463,0.466,0.4672,0.47,0.4686,0.4674,0.4698,0.4698,0.4698,0.4703,0.4704,0.4688,0.4688,0.4688,0,0.406,0.4118,0.4166,0.4203,0.4234,0.4279,0.4311,0.4347,0.4418,0.4439,0.4447,0.4544,0.4587,0.4642,0.4645,0.4668,0.4679,0.4678,0.4694,0.4694,0.4695,0.47,0.4702,0.4686,0.4686,0.4686,0.4687,0,0.4088,0.4128,0.4146,0.4212,0.4245,0.428,0.4333,0.4361,0.439,0.4428,0.4477,0.453,0.4587,0.4602,0.4631,0.4662,0.4665,0.4682,0.4696,0.4692,0.4698,0.47,0.4683,0.4684,0.4684,0.4685,0,0,0.4058,0.4149,0.4155,0.4186,0.4254,0.4287,0.4324,0.4378,0.4401,0.4449,0.4482,0.4545,0.4561,0.4596,0.463,0.465,0.4657,0.4666,0.4668,0.4663,0.4695,0.4682,0.4683,0.4676,0.4676,0.4677,0.469,0,0.4065,0.4132,0.4176,0.4226,0.4264,0.4308,0.434,0.4386,0.4422,0.4461,0.4502,0.4546,0.4564,0.4585,0.4607,0.4652,0.4665,0.4651,0.4708,0.471,0.4692,0.4686,0.4673,0.4683,0.4693,0.4693,0.4694,0,0.4083,0.4128,0.4181,0.4246,0.4263,0.4291,0.4345,0.4381,0.4434,0.4459,0.4497,0.4531,0.4573,0.4583,0.4642,0.4632,0.4658,0.4683,0.4684,0.4692,0.4701,0.4694,0.4687,0.4689,0.4698,0.4697,0.4697,0,0.4056,0.413,0.4172,0.4197,0.4272,0.4291,0.4324,0.4377,0.4407,0.4454,0.4474,0.4526,0.4554,0.4594,0.4642,0.4644,0.4696,0.471,0.4719,0.4718,0.4728,0.4727,0.4726,0.4744,0.4744,0.4744,0.4744,0,0.406,0.4091,0.416,0.4186,0.4223,0.4273,0.4308,0.4345,0.4391,0.4426,0.4467,0.4498,0.4559,0.4598,0.4636,0.4679,0.4692,0.4714,0.4724,0.4711,0.4708,0.4729,0.4729,0.4744,0.4744,0.4744,0.4744,0,0.4036,0.4083,0.4132,0.4199,0.4217,0.4241,0.4299,0.4326,0.4364,0.4407,0.4421,0.4481,0.4529,0.458,0.4647,0.4672,0.4714,0.4727,0.4695,0.4701,0.4707,0.4706,0.472,0.4724,0.4738,0.4738,0.4738,0,0.4035,0.406,0.413,0.4155,0.4186,0.4227,0.4257,0.4308,0.4338,0.44,0.442,0.4471,0.4515,0.459,0.4641,0.4692,0.4707,0.4708,0.4715,0.4701,0.4708,0.4705,0.4709,0.4706,0.4706,0.4705,0.4705,0,0.4029,0.4052,0.4093,0.4143,0.4178,0.422,0.4264,0.4283,0.4342,0.4374,0.4423,0.4457,0.4524,0.4574,0.4631,0.4666,0.4696,0.4702,0.4707,0.4694,0.4675,0.4686,0.469,0.4702,0.4702,0.4703,0.4703,0.4703,0.4018,0.4042,0.4094,0.4139,0.4177,0.4217,0.4246,0.4287,0.4329,0.4386,0.4414,0.4463,0.4517,0.4596,0.463,0.467,0.4679,0.4686,0.4688,0.4689,0.4686,0.4668,0.4681,0.4681,0.4681,0.4681,0.4681,0,0.4014,0.405,0.4091,0.415,0.4186,0.4209,0.4259,0.4287,0.433,0.4376,0.4418,0.4475,0.4524,0.4578,0.4631,0.4652,0.4667,0.4665,0.4664,0.4671,0.4675,0.4665,0.4652,0.4652,0.4652,0.4652,0.4652,0.4652,0.4016,0.4058,0.4087,0.4149,0.4185,0.4233,0.4259,0.4296,0.4334,0.4395,0.4435,0.447,0.452,0.4576,0.4623,0.4637,0.4655,0.4648,0.4667,0.4669,0.4671,0.4674,0.4665,0.4652,0.4652,0.4661,0.4661,0.4661]},{"header":{"parameterUnit":"m.s-1","parameterCategory":1,"la1":30.2991,"la2":30.254,"lo1":-89.0895,"lo2":-89.0444,"dy":0.0017,"dx":0.0017,"nx":28,"ny":28,"refTime":"2025-08-20T21:00:00:Z","depth":0,"parameterNumber":3,"parameterNumberName":"V-component_of_WINDS"},"data":[0,0,0,0,0,0,0,0,0,0,0,0,0,0,0,0,0,0,0,0,0,0,0,0,0,0,0,0,0,0,0,0,0,0,0,0,0,0,0,0,0,0,0,0,0,0,0,0,0,0,0,0,0,0,0,0,0,0,2.6826,2.6826,0,2.681,2.681,2.6809,2.6811,2.6811,2.6811,2.6811,2.6793,2.6792,2.6791,0,0,0,0,0,0,0,0,0,0,0,0,0,2.6854,2.6854,2.6826,2.6826,2.6826,2.681,2.681,2.6809,2.6811,2.6811,2.6811,2.6812,2.6793,2.6792,2.6791,0,0,0,0,0,0,0,0,0,0,0,0,0,2.684,2.6854,2.6826,2.6824,2.6824,2.681,2.681,2.6809,2.6811,2.6811,2.6811,2.6812,2.6793,2.6792,2.6791,2.6777,0,0,2.6788,2.6787,0,0,0,0,0,0,0,0,2.6841,2.6839,2.6825,2.6824,2.6824,2.6813,2.6813,2.6798,2.6811,2.6816,2.6811,2.6812,2.6799,2.6797,2.6793,2.6776,2.6775,2.6788,2.6787,2.6787,2.6786,0,0,0,0,0,0,0,2.6842,2.684,2.6819,2.6824,2.6824,2.6823,2.6822,2.681,2.6805,2.6815,2.6815,2.6813,2.6799,2.6795,2.6793,2.6775,2.6788,2.6787,2.6786,2.6786,2.6743,2.6742,0,0,0,0,0,0,2.6844,2.6841,2.682,2.6819,2.6834,2.6822,2.6821,2.6816,2.6805,2.6804,2.6813,2.6814,2.6796,2.6794,2.6792,2.6774,2.6787,2.6785,2.6785,2.6743,2.6742,2.6742,0,0,0,0,0,0,2.6845,2.6842,2.6821,2.683,2.6827,2.6822,2.6816,2.6815,2.6811,2.6804,2.6803,2.681,2.6796,2.6794,2.678,2.6773,2.6785,2.6784,2.6744,2.6743,2.6742,2.6737,0,0,0,0,0,0,2.6845,2.6842,2.6838,2.683,2.6827,2.681,2.6816,2.6815,2.681,2.681,2.6801,2.6799,2.6797,2.6782,2.6779,2.6772,2.6783,2.6744,2.6743,2.6742,2.6738,2.6736,2.6735,0,0,0,0,0,2.6846,2.6837,2.6838,2.6835,2.6821,2.681,2.6808,2.6805,2.6809,2.6804,2.6799,2.68,2.6774,2.6781,2.6778,2.677,2.6745,2.6744,2.6742,2.6738,2.6736,2.6735,0,0,0,0,0,0,2.6844,2.6836,2.6837,2.6824,2.6818,2.681,2.6803,2.6804,2.6795,2.6796,2.6792,2.679,2.6776,2.6772,2.6779,2.6754,2.676,2.6758,2.6758,2.6756,2.6754,2.6755,2.6782,0,0,0,0,0,2.6842,2.6834,2.6827,2.6817,2.6814,2.6809,2.6804,2.6803,2.6795,2.6792,2.6786,2.6778,2.6768,2.6762,2.6752,2.6737,2.6734,2.673,2.6728,2.6727,2.6725,2.6714,2.6712,2.6738,2.6738,2.6738,0,0,2.6837,2.6832,2.6827,2.6816,2.6811,2.6802,2.6807,2.6797,2.679,2.679,2.6777,2.6772,2.6763,2.6748,2.6741,2.6744,2.6717,2.6726,2.6725,2.6724,2.6713,2.6711,2.6708,2.6738,2.6738,2.6738,0,0,2.6825,2.6821,2.6811,2.6805,2.6797,2.6794,2.6792,2.6783,2.678,2.6767,2.6767,2.6757,2.6741,2.6734,2.6728,2.6711,2.671,2.6708,2.6699,2.6689,2.6687,2.6685,2.6677,2.6675,2.6706,2.6706,2.6706,0,2.682,2.6807,2.6806,2.6796,2.679,2.6791,2.678,2.6774,2.6763,2.6758,2.6762,2.674,2.6734,2.6716,2.6712,2.6707,2.6703,2.6709,2.6688,2.6686,2.6684,2.6676,2.6673,2.6706,2.6706,2.6706,2.6706,0,2.6801,2.6792,2.6785,2.6775,2.6768,2.6758,2.6753,2.6747,2.6745,2.6741,2.6726,2.6719,2.6707,2.6703,2.6702,2.6684,2.6686,2.6689,2.6694,2.6681,2.6674,2.6671,2.6705,2.6705,2.6705,2.6705,0,0,2.6787,2.6775,2.6772,2.6767,2.6757,2.6749,2.6738,2.6727,2.6721,2.6713,2.6702,2.6687,2.6689,2.6682,2.668,2.6671,2.6655,2.6674,2.6674,2.667,2.6633,2.6631,2.6627,2.6655,2.6655,2.6655,2.6633,0,2.6772,2.6753,2.6751,2.6734,2.6724,2.6724,2.6714,2.6706,2.6701,2.6691,2.6686,2.6675,2.6679,2.6675,2.6666,2.6659,2.6648,2.6661,2.6644,2.6643,2.6645,2.6624,2.6622,2.6602,2.6631,2.663,2.663,0,2.6753,2.6744,2.6726,2.6716,2.6712,2.6704,2.6692,2.6683,2.6674,2.6671,2.6663,2.6661,2.6647,2.6654,2.6634,2.6643,2.6636,2.6631,2.663,2.6628,2.6635,2.6619,2.6596,2.6593,2.6626,2.6626,2.6627,0,2.6742,2.6726,2.6713,2.6708,2.6697,2.6691,2.6685,2.6676,2.6669,2.6659,2.6653,2.6641,2.6635,2.6624,2.6619,2.6624,2.6599,2.6605,2.6594,2.6594,2.6588,2.6589,2.6562,2.6586,2.6586,2.6586,2.6586,0,2.6726,2.6714,2.6708,2.67,2.6686,2.6683,2.6669,2.6664,2.6655,2.6644,2.6643,2.6633,2.6627,2.6615,2.661,2.6593,2.6591,2.6587,2.6585,2.6586,2.6586,2.6581,2.6581,2.6585,2.6585,2.6585,2.6585,0,2.6712,2.6707,2.6692,2.6683,2.668,2.667,2.6661,2.6652,2.6647,2.6633,2.663,2.6621,2.6607,2.6601,2.6584,2.658,2.656,2.6561,2.6564,2.6563,2.6552,2.6552,2.652,2.6514,2.6543,2.6543,2.6542,0,2.6701,2.6692,2.6681,2.6674,2.6669,2.6658,2.6651,2.6646,2.6638,2.6625,2.6617,2.6603,2.6592,2.6569,2.656,2.6546,2.6545,2.6535,2.6543,2.6544,2.6543,2.6543,2.6541,2.6533,2.6533,2.6533,2.6532,0,2.6682,2.668,2.667,2.6658,2.6649,2.664,2.6631,2.6625,2.6619,2.6609,2.6595,2.6586,2.6568,2.6553,2.6538,2.6531,2.653,2.653,2.6526,2.6526,2.6528,2.6525,2.6558,2.6531,2.6531,2.6531,2.6531,2.6531,2.6668,2.666,2.665,2.6638,2.6631,2.6622,2.6612,2.6606,2.6594,2.658,2.6577,2.6562,2.655,2.653,2.6522,2.6508,2.6511,2.6506,2.6504,2.6503,2.6501,2.6531,2.6506,2.6506,2.6506,2.6506,2.6506,0,2.6648,2.6641,2.6631,2.6618,2.6608,2.6608,2.6598,2.6589,2.6575,2.6565,2.6554,2.6536,2.6521,2.6511,2.6496,2.6486,2.6485,2.6482,2.6482,2.648,2.6501,2.6505,2.6483,2.6483,2.6483,2.6483,2.6483,2.6483,2.6636,2.6621,2.6617,2.6598,2.6591,2.6576,2.657,2.6561,2.6552,2.6533,2.6521,2.6515,2.6503,2.6487,2.6472,2.647,2.6463,2.646,2.6457,2.6477,2.6479,2.6481,2.6485,2.6459,2.6459,2.6437,2.6436,2.6436]}]]